Wind_Speed
15 15 15 16 18 18 19 18 17 17 17 18 19 20 21 23 25 26 25 24 23 23 24 24 25 27 28
10 12 13 15 15 16 17 17 17 17 19 18 17 20 23 24 24 25 26 26 26 22 22 24 27 30 29
7 9 10 12 14 14 15 15 16 17 17 15 19 22 22 20 24 26 27 26 22 21 23 27 28 29 30
6 7 10 12 13 15 14 14 14 13 14 16 20 20 19 21 26 26 24 21 18 24 28 29 30 30 30
6 7 8 11 13 14 15 16 15 10 17 18 18 17 17 22 24 24 21 15 22 27 26 29 28 30 31
5 6 8 10 12 13 14 17 21 17 22 20 20 18 22 22 23 21 18 21 27 27 28 29 30 30 29
6 7 8 10 11 13 14 17 20 20 22 23 20 23 21 20 17 16 24 25 25 28 27 27 27 29 32
7 8 9 11 11 14 17 19 20 19 20 20 25 26 25 17 14 22 24 24 28 26 27 23 29 30 31
8 8 9 12 14 14 16 18 20 20 14 25 27 31 30 17 25 24 23 27 26 28 22 27 29 30 31
7 9 10 11 13 14 16 17 18 19 18 26 27 28 26 23 33 29 28 27 28 25 25 29 30 29 31
8 9 10 11 12 12 12 14 17 18 17 18 24 25 24 35 36 29 30 29 27 26 28 29 28 26 28
9 9 9 9 9 10 11 12 13 16 16 16 22 22 25 31 32 32 29 29 27 33 31 31 28 24 24
8 8 9 9 11 11 10 10 10 12 15 17 19 19 21 25 29 29 32 34 30 33 33 34 31 25 30
8 8 9 11 11 12 12 13 14 13 15 18 17 19 22 22 23 26 28 31 36 34 34 33 29 23 26
9 10 10 11 12 12 11 13 15 19 20 17 17 21 23 23 23 27 32 35 35 35 34 34 30 26 25
10 10 11 12 12 9 10 12 16 19 21 21 24 28 30 31 22 29 34 35 35 35 34 34 32 26 22
10 10 11 11 11 9 10 13 15 18 20 20 22 25 29 35 37 31 32 33 35 36 34 30 31 30 23
Wind_Direction
232 243 262 282 293 302 306 307 312 313 315 313 310 308 308 310 308 307 308 309 309 306 309 304 305 305 307
236 248 269 284 293 300 306 313 317 316 311 310 310 311 310 308 306 306 310 310 308 313 308 309 306 307 306
249 260 279 289 297 307 313 314 313 311 308 311 312 311 309 308 307 310 310 308 310 304 310 311 307 306 303
268 280 288 295 311 313 308 312 317 318 306 321 316 314 311 309 308 308 309 312 310 301 312 308 309 307 305
287 295 310 312 312 319 321 323 329 319 311 328 323 321 316 318 314 315 317 321 313 316 312 314 310 307 308
305 309 312 315 319 324 323 330 338 334 326 332 331 326 328 327 324 322 321 316 321 318 317 315 314 312 309
306 315 313 320 324 329 332 331 330 332 325 327 333 332 338 336 327 323 322 322 321 321 320 318 316 313 308
315 322 317 318 326 329 329 328 326 327 330 327 341 336 341 348 340 333 330 326 324 324 320 316 316 315 313
315 321 317 321 326 323 322 325 327 339 340 334 341 335 337 352 349 343 333 331 328 326 320 319 321 321 318
311 314 315 311 313 321 324 327 335 344 344 332 338 344 333 335 342 344 337 338 332 327 325 327 328 325 323
306 306 306 311 310 312 321 333 337 330 337 327 328 332 326 325 335 345 340 339 339 337 333 330 331 329 325
307 307 302 299 310 332 337 333 331 327 334 328 324 330 326 325 327 335 337 339 339 339 336 333 335 329 325
307 309 320 333 336 332 332 328 334 332 333 332 330 332 330 327 322 332 336 337 338 336 336 338 342 339 332
317 327 330 330 334 335 339 337 339 338 341 340 338 336 335 339 329 333 338 333 336 339 337 338 344 343 336
315 321 326 333 342 343 344 344 341 340 342 341 340 339 340 346 345 345 339 336 337 336 340 339 345 348 338
313 320 332 340 339 344 338 337 339 342 345 346 346 341 342 348 349 345 339 335 335 337 339 338 340 350 341
320 330 330 334 334 332 333 336 340 345 352 348 348 350 347 339 341 350 339 337 335 333 337 337 336 344 343
Height
1535 1537 1539 1537 1536 1534 1533 1529 1526 1524 1521 1519 1517 1514 1512 1508 1506 1502 1498 1495 1491 1489 1486 1484 1479 1475 1471
1533 1534 1535 1534 1533 1531 1529 1525 1522 1521 1518 1516 1514 1510 1508 1505 1501 1497 1493 1489 1485 1483 1481 1477 1473 1468 1464
1531 1532 1531 1532 1530 1528 1525 1522 1519 1518 1515 1512 1510 1507 1504 1500 1497 1492 1488 1484 1480 1478 1474 1471 1466 1461 1457
1529 1529 1529 1528 1525 1524 1523 1519 1516 1514 1513 1509 1506 1503 1500 1496 1492 1488 1483 1479 1477 1473 1469 1464 1459 1454 1449
1526 1527 1525 1524 1523 1522 1518 1515 1513 1512 1509 1506 1503 1499 1496 1491 1485 1481 1477 1475 1472 1467 1462 1457 1451 1446 1441
1524 1524 1523 1521 1521 1518 1516 1513 1509 1509 1505 1502 1498 1496 1491 1485 1480 1476 1473 1471 1466 1461 1455 1450 1444 1440 1435
1524 1522 1522 1519 1517 1515 1513 1512 1509 1506 1503 1499 1495 1491 1487 1482 1478 1475 1471 1465 1460 1455 1449 1444 1440 1434 1428
1521 1520 1518 1517 1515 1512 1510 1508 1506 1503 1498 1493 1490 1485 1482 1480 1477 1472 1466 1460 1454 1449 1445 1440 1434 1427 1421
1519 1517 1516 1515 1512 1511 1508 1505 1503 1500 1494 1490 1486 1479 1477 1476 1472 1467 1462 1457 1450 1444 1440 1435 1428 1420 1412
1517 1516 1514 1513 1511 1508 1506 1504 1500 1495 1493 1488 1484 1481 1471 1466 1467 1462 1457 1452 1446 1440 1435 1428 1421 1414 1407
1516 1514 1511 1509 1508 1507 1504 1500 1497 1495 1493 1488 1484 1481 1476 1466 1461 1458 1453 1447 1441 1436 1430 1424 1417 1411 1403
1513 1511 1509 1508 1507 1504 1501 1498 1496 1493 1490 1487 1482 1479 1473 1466 1460 1455 1451 1444 1437 1431 1425 1418 1413 1406 1401
1511 1509 1508 1505 1504 1502 1499 1497 1495 1492 1489 1486 1481 1477 1473 1467 1459 1452 1444 1438 1434 1428 1420 1413 1406 1401 1393
1509 1507 1505 1504 1502 1499 1497 1495 1493 1492 1488 1483 1479 1475 1470 1466 1458 1450 1445 1438 1430 1423 1416 1410 1404 1399 1392
1507 1506 1504 1502 1500 1497 1496 1494 1492 1488 1484 1481 1477 1473 1468 1461 1455 1448 1441 1434 1427 1419 1413 1406 1401 1395 1388
1505 1504 1502 1500 1498 1497 1496 1494 1491 1487 1483 1478 1472 1467 1462 1456 1452 1445 1439 1431 1423 1416 1411 1403 1396 1392 1386
1503 1502 1501 1500 1498 1496 1495 1493 1490 1486 1482 1477 1472 1467 1460 1453 1448 1446 1437 1428 1420 1412 1407 1402 1395 1389 1383